Home > Weather > Hampton > Past weeks

Flag for U.S.A. Weather for the Past 2 Weeks in Hampton, Virginia, U.S.A.

Now
37 °F

Partly sunny.


Feels Like: 30 °F
Forecast: 33 / 43 °F
Wind: 10 mph from Northeast

Location: Langley Air Force Base

Current Time: Feb 7, 2016 at 8:22:16 AM

Latest Report: Feb 7, 2016 at 7:58 AM


Visibility: 10 mi

Pressure: 30.14 "Hg

Humidity: 76%

Dew point: 31 °F

Location of HamptonLocation

Historic Weather in Hampton — Graph

°F

Hampton Temperature Yesterday

Maximum temperature yesterday: 43 °F (at 1:58 PM)
Minimum temperature yesterday: 29 °F (at 3:58 AM)
Average temperature yesterday: 35 °F

High & Low Weather Summary for the Past Weeks

 TemperatureHumidityPressure
High72 °F (Feb 1, 2:58 PM)100% (Jan 23, 6:03 AM)30.49 "Hg (Jan 23, 6:03 AM)
Low25 °F (Jan 30, 6:58 AM)28% (Jan 30, 2:58 PM)29.30 "Hg (Jan 23, 6:03 AM)
Average43 °F74%30.05 "Hg
* Reported Jan 23 6:03 AM — Feb 7 6:58 AM, Hampton, Weather by CustomWeather, © 2016

Note: Actual official high and low records may vary slightly from our data, if they occured in-between our weather recording intervals... More about our weather records

Advertising

Hampton Weather History for the Previous 24 Hours

 ConditionsComfort  
Time TempWeatherWind HumidityBarometerVisibility
6:58 AM
Sun, Feb 7
35 °FPassing clouds.9 mph80%30.15 "Hg10 mi
5:58 AM34 °FClear.2 mph84%30.18 "Hg10 mi
4:58 AM33 °FClear.6 mph90%30.16 "Hg10 mi
3:58 AM30 °FClear.2 mph91%30.21 "Hg10 mi
2:58 AM30 °FClear.No wind90%30.23 "Hg10 mi
1:58 AM31 °FOvercast.1 mph91%30.26 "Hg10 mi
12:58 AM29 °FClear.3 mph90%30.26 "Hg10 mi
11:58 PM
Sat, Feb 6
29 °FClear.2 mph89%30.28 "Hg10 mi
10:58 PM30 °FClear.2 mph85%30.30 "Hg10 mi
9:58 PM29 °FClear.No wind85%30.32 "Hg10 mi
8:58 PM33 °FClear.No wind80%30.35 "Hg10 mi
7:58 PM34 °FClear.2 mph71%30.36 "Hg10 mi
6:58 PM37 °FClear.5 mph58%30.35 "Hg10 mi
5:58 PM39 °FClear.2 mph51%30.36 "Hg10 mi
4:58 PM40 °FSunny.6 mph55%30.35 "Hg10 mi
3:58 PM42 °FSunny.8 mph51%30.34 "Hg10 mi
2:58 PM43 °FSunny.8 mph50%30.35 "Hg10 mi
1:58 PM43 °FSunny.8 mph56%30.36 "Hg10 mi
12:58 PM43 °FPassing clouds.3 mph55%30.41 "Hg10 mi
11:58 AM41 °FPassing clouds.2 mph55%30.45 "Hg10 mi
10:58 AM40 °FSunny.No wind59%30.49 "Hg10 mi
9:58 AM38 °FSunny.1 mph71%30.49 "Hg10 mi
8:58 AM35 °FSunny.No wind74%30.49 "Hg10 mi
Weather by CustomWeather, © 2016

See weather overviewHow to use our weather pages